Hourly Data Report for September 17, 2017

All times are specified in Local Standard Time (LST). Add 1 hour to adjust for Daylight Saving Time where and when it is observed.

NORTH CAPE
PRINCE EDWARD ISLAND

47°03'29.000" N
63°59'55.000" W
7.60 m
8300516
71987
WNE

Download Data

Hourly Data (September 2017)
Hourly Data Report for September 17, 2017
Temp Definition
°C
Dew Point Temp Definition
°C
Rel Hum Definition
%
Wind Dir Definition
10's deg

Wind Spd Definition
km/h
Visibility Definition
km
Stn Press Definition
kPa
Hmdx Definition


Wind Chill Definition


Weather Definition


TIME
00:00 13.9 10.3 79 6 17   102.15     LegendNANA
01:00 14.0 10.3 78 7 14   102.13     LegendNANA
02:00 14.1 10.2 78 8 14   102.11     LegendNANA
03:00 14.1 10.4 78 8 12   102.06     LegendNANA
04:00 14.1 10.3 78 9 10   102.09     LegendNANA
05:00 14.3 10.4 78 7 9   102.11     LegendNANA
06:00 14.3 10.3 77 6 11   102.16     LegendNANA
07:00 14.3 10.0 75 7 13   102.16     LegendNANA
08:00 14.5 9.9 74 8 13   102.21     LegendNANA
09:00 14.6 10.1 74 8 15   102.22     LegendNANA
10:00 14.7 10.4 76 8 16   102.22     LegendNANA
11:00 13.6 11.4 87 6 27   102.24     LegendNANA
12:00 14.0 11.2 83 8 27   102.16     LegendNANA
13:00 13.5 11.1 86 7 29   102.13     LegendNANA
14:00 13.7 11.0 84 8 27   102.09     LegendNANA
15:00 13.6 11.3 86 8 29   102.10     LegendNANA
16:00 13.7 11.1 84 9 30   102.09     LegendNANA
17:00 14.0 10.8 81 9 29   102.10     LegendNANA
18:00 14.4 11.2 81 9 27   102.10     LegendNANA
19:00 14.6 11.3 81 9 30   102.14     LegendNANA
20:00 14.8 11.4 81 10 26   102.18     LegendNANA
21:00 15.0 11.9 82 10 25   102.15     LegendNANA
22:00 15.1 12.0 82 11 25   102.16     LegendNANA
23:00 15.3 11.9 80 11 23   102.18     LegendNANA

Notes on Data Quality.

Legend

  • E = Estimated
  • M = Missing
  • NA = Not Available
  • ‡ = Partner data that is not subject to review by the National Climate Archives
Date modified: